(°C)
22°
21°
22°
23°
26°
28°
30°
(°C)
22°
21°
22°
23°
25°
28°
29°
СВ
СВ
СВ
СВ
СВ
СВ
СВ
(км/ч)
9-19
9-19
10-20
10-20
11-22
13-23
14-24
(мм)
0
0
0
0
0
0
0
(%)
0
0
0
0
0
0
0

Высота солнцестояния

/ -13.1°
sun-icon
UV 6
04:02
20:48
Растущая луна (162°)
19:35
02:37

METAR для 51.82°С 39.23°В (UUOO)

Время Условия Температура/
Точка росы
Ветер Видимость Погода Облачность Давление Изменить Необработанный
VFR 24°C / 14°C 70º 6kt >10km - Clouds and Visibility OK 1019 No Significant change. Runway 12: Clear and dry, 1-10% contamination with <1mm, friction coefficient 0.70. UUOO 222230Z 07003MPS CAVOK 24/14 Q1019 R12/010070 NOSIG RMK QFE750
VFR 24°C / 14°C 70º 6kt >10km - Clouds and Visibility OK 1019 No Significant change. Runway 12: Clear and dry, 1-10% contamination with <1mm, friction coefficient 0.70. UUOO 222200Z 07003MPS CAVOK 24/14 Q1019 R12/010070 NOSIG RMK QFE750
VFR 25°C / 14°C 60º 6kt >10km - Clouds and Visibility OK 1019 No Significant change. Runway 12: Clear and dry, 1-10% contamination with <1mm, friction coefficient 0.70. UUOO 222130Z 06003MPS CAVOK 25/14 Q1019 R12/010070 NOSIG RMK QFE750
VFR 25°C / 14°C 60º 6kt >10km - Clouds and Visibility OK 1019 No Significant change. Runway 12: Clear and dry, 1-10% contamination with <1mm, friction coefficient 0.70. UUOO 222100Z 06003MPS CAVOK 25/14 Q1019 R12/010070 NOSIG RMK QFE750
VFR 25°C / 14°C 60º 6kt >10km - Clouds and Visibility OK 1019 No Significant change. Runway 12: Clear and dry, 1-10% contamination with <1mm, friction coefficient 0.70. UUOO 222030Z 06003MPS CAVOK 25/14 Q1019 R12/010070 NOSIG RMK QFE750
VFR 25°C / 14°C 70º 6kt >10km - Clouds and Visibility OK 1019 No Significant change. Runway 12: Clear and dry, 1-10% contamination with <1mm, friction coefficient 0.70. UUOO 222000Z 07003MPS CAVOK 25/14 Q1019 R12/010070 NOSIG RMK QFE750
VFR 26°C / 14°C 60º 6kt >10km - Clouds and Visibility OK 1019 No Significant change. Runway 12: Clear and dry, 1-10% contamination with <1mm, friction coefficient 0.70. UUOO 221930Z 06003MPS CAVOK 26/14 Q1019 R12/010070 NOSIG RMK QFE750
VFR 26°C / 14°C 50º 6kt >10km - Clouds and Visibility OK 1019 No Significant change. Runway 12: Clear and dry, 1-10% contamination with <1mm, friction coefficient 0.70. UUOO 221900Z 05003MPS CAVOK 26/14 Q1019 R12/010070 NOSIG RMK QFE750
VFR 26°C / 14°C 50º 6kt >10km - Clouds and Visibility OK 1019 No Significant change. Runway 12: Clear and dry, 1-10% contamination with <1mm, friction coefficient 0.70. UUOO 221830Z 05003MPS CAVOK 26/14 Q1019 R12/010070 NOSIG RMK QFE750
VFR 27°C / 15°C 60º 4kt >10km - Clouds and Visibility OK 1019 No Significant change. Runway 30: Clear and dry, 1-10% contamination with <1mm, friction coefficient 0.70. UUOO 221800Z 06002MPS CAVOK 27/15 Q1019 R30/010070 NOSIG RMK QFE750
VFR 27°C / 15°C 50º 4kt >10km - Clouds and Visibility OK 1019 No Significant change. Runway 30: Clear and dry, 1-10% contamination with <1mm, friction coefficient 0.70. UUOO 221730Z 05002MPS CAVOK 27/15 Q1019 R30/010070 NOSIG RMK QFE750
VFR 28°C / 15°C 60º 4kt >10km - Clouds and Visibility OK 1019 No Significant change. Runway 30: Clear and dry, 1-10% contamination with <1mm, friction coefficient 0.70. UUOO 221700Z 06002MPS CAVOK 28/15 Q1019 R30/010070 NOSIG RMK QFE750
VFR 29°C / 16°C 60º 4kt >10km - Clouds and Visibility OK 1019 No Significant change. Runway 12: Clear and dry, 1-10% contamination with <1mm, friction coefficient 0.70. UUOO 221630Z 06002MPS CAVOK 29/16 Q1019 R12/010070 NOSIG RMK QFE750
VFR 30°C / 16°C 50º 4kt >10km - Clouds and Visibility OK 1019 No Significant change. Runway 12: Clear and dry, 1-10% contamination with <1mm, friction coefficient 0.70. UUOO 221600Z 05002MPS CAVOK 30/16 Q1019 R12/010070 NOSIG RMK QFE750
VFR 31°C / 15°C 70º 4kt >10km - Clouds and Visibility OK 1019 No Significant change. Runway 12: Clear and dry, 1-10% contamination with <1mm, friction coefficient 0.70. UUOO 221530Z 07002MPS CAVOK 31/15 Q1019 R12/010070 NOSIG RMK QFE750
VFR 32°C / 14°C 90º 6kt >10km - Clouds and Visibility OK 1019 No Significant change. Runway 12: Clear and dry, 1-10% contamination with <1mm, friction coefficient 0.70. UUOO 221500Z 09003MPS CAVOK 32/14 Q1019 R12/010070 NOSIG RMK QFE750
VFR 32°C / 13°C 90º 6kt >10km - Clouds and Visibility OK 1019 No Significant change. Runway 12: Clear and dry, 1-10% contamination with <1mm, friction coefficient 0.70. UUOO 221430Z 09003MPS CAVOK 32/13 Q1019 R12/010070 NOSIG RMK QFE750
VFR 32°C / 13°C 80º 6kt >10km - Clouds and Visibility OK 1019 No Significant change. Runway 12: Clear and dry, 1-10% contamination with <1mm, friction coefficient 0.70. UUOO 221400Z 08003MPS CAVOK 32/13 Q1019 R12/010070 NOSIG RMK QFE750
VFR 32°C / 13°C 90º 4kt >10km - Clouds and Visibility OK 1019 No Significant change. Runway 12: Clear and dry, 1-10% contamination with <1mm, friction coefficient 0.70. UUOO 221330Z 09002MPS CAVOK 32/13 Q1019 R12/010070 NOSIG RMK QFE750
VFR 33°C / 12°C 110º 8kt >10km - Clouds and Visibility OK 1019 No Significant change. Runway 12: Clear and dry, 1-10% contamination with <1mm, friction coefficient 0.70. UUOO 221300Z 11004MPS CAVOK 33/12 Q1019 R12/010070 NOSIG RMK QFE750
VFR 33°C / 12°C 100º 10kt >10km - Clouds and Visibility OK 1019 No Significant change. Runway 12: Clear and dry, 1-10% contamination with <1mm, friction coefficient 0.70. UUOO 221230Z 10005MPS CAVOK 33/12 Q1019 R12/010070 NOSIG RMK QFE750
VFR 34°C / 10°C 120º 8kt >10km - Clouds and Visibility OK 1019 No Significant change. Runway 12: Clear and dry, 1-10% contamination with <1mm, friction coefficient 0.70. UUOO 221200Z 12004MPS CAVOK 34/10 Q1019 R12/010070 NOSIG RMK QFE750
VFR 33°C / 9°C 100º 8kt >10km - Clouds and Visibility OK 1019 No Significant change. Runway 12: Clear and dry, 1-10% contamination with <1mm, friction coefficient 0.70. UUOO 221130Z 10004MPS CAVOK 33/09 Q1019 R12/010070 NOSIG RMK QFE750
VFR 33°C / 11°C 90º 8kt >10km - Clouds and Visibility OK 1019 No Significant change. Runway 12: Clear and dry, 1-10% contamination with <1mm, friction coefficient 0.70. UUOO 221100Z 09004MPS CAVOK 33/11 Q1019 R12/010070 NOSIG RMK QFE750

VFR

24°C / 14°C

[Больше]
Ветер 70º 6kt
Видимость >10km
Погода -
Облачность Clouds and Visibility OK
Давление 1019
Изменить No Significant change. Runway 12: Clear and dry, 1-10% contamination with <1mm, friction coefficient 0.70.
Необработанный UUOO 222230Z 07003MPS CAVOK 24/14 Q1019 R12/010070 NOSIG RMK QFE750

VFR

24°C / 14°C

[Больше]
Ветер 70º 6kt
Видимость >10km
Погода -
Облачность Clouds and Visibility OK
Давление 1019
Изменить No Significant change. Runway 12: Clear and dry, 1-10% contamination with <1mm, friction coefficient 0.70.
Необработанный UUOO 222200Z 07003MPS CAVOK 24/14 Q1019 R12/010070 NOSIG RMK QFE750

VFR

25°C / 14°C

[Больше]
Ветер 60º 6kt
Видимость >10km
Погода -
Облачность Clouds and Visibility OK
Давление 1019
Изменить No Significant change. Runway 12: Clear and dry, 1-10% contamination with <1mm, friction coefficient 0.70.
Необработанный UUOO 222130Z 06003MPS CAVOK 25/14 Q1019 R12/010070 NOSIG RMK QFE750

VFR

25°C / 14°C

[Больше]
Ветер 60º 6kt
Видимость >10km
Погода -
Облачность Clouds and Visibility OK
Давление 1019
Изменить No Significant change. Runway 12: Clear and dry, 1-10% contamination with <1mm, friction coefficient 0.70.
Необработанный UUOO 222100Z 06003MPS CAVOK 25/14 Q1019 R12/010070 NOSIG RMK QFE750

VFR

25°C / 14°C

[Больше]
Ветер 60º 6kt
Видимость >10km
Погода -
Облачность Clouds and Visibility OK
Давление 1019
Изменить No Significant change. Runway 12: Clear and dry, 1-10% contamination with <1mm, friction coefficient 0.70.
Необработанный UUOO 222030Z 06003MPS CAVOK 25/14 Q1019 R12/010070 NOSIG RMK QFE750

VFR

25°C / 14°C

[Больше]
Ветер 70º 6kt
Видимость >10km
Погода -
Облачность Clouds and Visibility OK
Давление 1019
Изменить No Significant change. Runway 12: Clear and dry, 1-10% contamination with <1mm, friction coefficient 0.70.
Необработанный UUOO 222000Z 07003MPS CAVOK 25/14 Q1019 R12/010070 NOSIG RMK QFE750

VFR

26°C / 14°C

[Больше]
Ветер 60º 6kt
Видимость >10km
Погода -
Облачность Clouds and Visibility OK
Давление 1019
Изменить No Significant change. Runway 12: Clear and dry, 1-10% contamination with <1mm, friction coefficient 0.70.
Необработанный UUOO 221930Z 06003MPS CAVOK 26/14 Q1019 R12/010070 NOSIG RMK QFE750

VFR

26°C / 14°C

[Больше]
Ветер 50º 6kt
Видимость >10km
Погода -
Облачность Clouds and Visibility OK
Давление 1019
Изменить No Significant change. Runway 12: Clear and dry, 1-10% contamination with <1mm, friction coefficient 0.70.
Необработанный UUOO 221900Z 05003MPS CAVOK 26/14 Q1019 R12/010070 NOSIG RMK QFE750

VFR

26°C / 14°C

[Больше]
Ветер 50º 6kt
Видимость >10km
Погода -
Облачность Clouds and Visibility OK
Давление 1019
Изменить No Significant change. Runway 12: Clear and dry, 1-10% contamination with <1mm, friction coefficient 0.70.
Необработанный UUOO 221830Z 05003MPS CAVOK 26/14 Q1019 R12/010070 NOSIG RMK QFE750

VFR

27°C / 15°C

[Больше]
Ветер 60º 4kt
Видимость >10km
Погода -
Облачность Clouds and Visibility OK
Давление 1019
Изменить No Significant change. Runway 30: Clear and dry, 1-10% contamination with <1mm, friction coefficient 0.70.
Необработанный UUOO 221800Z 06002MPS CAVOK 27/15 Q1019 R30/010070 NOSIG RMK QFE750

VFR

27°C / 15°C

[Больше]
Ветер 50º 4kt
Видимость >10km
Погода -
Облачность Clouds and Visibility OK
Давление 1019
Изменить No Significant change. Runway 30: Clear and dry, 1-10% contamination with <1mm, friction coefficient 0.70.
Необработанный UUOO 221730Z 05002MPS CAVOK 27/15 Q1019 R30/010070 NOSIG RMK QFE750

VFR

28°C / 15°C

[Больше]
Ветер 60º 4kt
Видимость >10km
Погода -
Облачность Clouds and Visibility OK
Давление 1019
Изменить No Significant change. Runway 30: Clear and dry, 1-10% contamination with <1mm, friction coefficient 0.70.
Необработанный UUOO 221700Z 06002MPS CAVOK 28/15 Q1019 R30/010070 NOSIG RMK QFE750

VFR

29°C / 16°C

[Больше]
Ветер 60º 4kt
Видимость >10km
Погода -
Облачность Clouds and Visibility OK
Давление 1019
Изменить No Significant change. Runway 12: Clear and dry, 1-10% contamination with <1mm, friction coefficient 0.70.
Необработанный UUOO 221630Z 06002MPS CAVOK 29/16 Q1019 R12/010070 NOSIG RMK QFE750

VFR

30°C / 16°C

[Больше]
Ветер 50º 4kt
Видимость >10km
Погода -
Облачность Clouds and Visibility OK
Давление 1019
Изменить No Significant change. Runway 12: Clear and dry, 1-10% contamination with <1mm, friction coefficient 0.70.
Необработанный UUOO 221600Z 05002MPS CAVOK 30/16 Q1019 R12/010070 NOSIG RMK QFE750

VFR

31°C / 15°C

[Больше]
Ветер 70º 4kt
Видимость >10km
Погода -
Облачность Clouds and Visibility OK
Давление 1019
Изменить No Significant change. Runway 12: Clear and dry, 1-10% contamination with <1mm, friction coefficient 0.70.
Необработанный UUOO 221530Z 07002MPS CAVOK 31/15 Q1019 R12/010070 NOSIG RMK QFE750

VFR

32°C / 14°C

[Больше]
Ветер 90º 6kt
Видимость >10km
Погода -
Облачность Clouds and Visibility OK
Давление 1019
Изменить No Significant change. Runway 12: Clear and dry, 1-10% contamination with <1mm, friction coefficient 0.70.
Необработанный UUOO 221500Z 09003MPS CAVOK 32/14 Q1019 R12/010070 NOSIG RMK QFE750

VFR

32°C / 13°C

[Больше]
Ветер 90º 6kt
Видимость >10km
Погода -
Облачность Clouds and Visibility OK
Давление 1019
Изменить No Significant change. Runway 12: Clear and dry, 1-10% contamination with <1mm, friction coefficient 0.70.
Необработанный UUOO 221430Z 09003MPS CAVOK 32/13 Q1019 R12/010070 NOSIG RMK QFE750

VFR

32°C / 13°C

[Больше]
Ветер 80º 6kt
Видимость >10km
Погода -
Облачность Clouds and Visibility OK
Давление 1019
Изменить No Significant change. Runway 12: Clear and dry, 1-10% contamination with <1mm, friction coefficient 0.70.
Необработанный UUOO 221400Z 08003MPS CAVOK 32/13 Q1019 R12/010070 NOSIG RMK QFE750

VFR

32°C / 13°C

[Больше]
Ветер 90º 4kt
Видимость >10km
Погода -
Облачность Clouds and Visibility OK
Давление 1019
Изменить No Significant change. Runway 12: Clear and dry, 1-10% contamination with <1mm, friction coefficient 0.70.
Необработанный UUOO 221330Z 09002MPS CAVOK 32/13 Q1019 R12/010070 NOSIG RMK QFE750

VFR

33°C / 12°C

[Больше]
Ветер 110º 8kt
Видимость >10km
Погода -
Облачность Clouds and Visibility OK
Давление 1019
Изменить No Significant change. Runway 12: Clear and dry, 1-10% contamination with <1mm, friction coefficient 0.70.
Необработанный UUOO 221300Z 11004MPS CAVOK 33/12 Q1019 R12/010070 NOSIG RMK QFE750

VFR

33°C / 12°C

[Больше]
Ветер 100º 10kt
Видимость >10km
Погода -
Облачность Clouds and Visibility OK
Давление 1019
Изменить No Significant change. Runway 12: Clear and dry, 1-10% contamination with <1mm, friction coefficient 0.70.
Необработанный UUOO 221230Z 10005MPS CAVOK 33/12 Q1019 R12/010070 NOSIG RMK QFE750

VFR

34°C / 10°C

[Больше]
Ветер 120º 8kt
Видимость >10km
Погода -
Облачность Clouds and Visibility OK
Давление 1019
Изменить No Significant change. Runway 12: Clear and dry, 1-10% contamination with <1mm, friction coefficient 0.70.
Необработанный UUOO 221200Z 12004MPS CAVOK 34/10 Q1019 R12/010070 NOSIG RMK QFE750

VFR

33°C / 9°C

[Больше]
Ветер 100º 8kt
Видимость >10km
Погода -
Облачность Clouds and Visibility OK
Давление 1019
Изменить No Significant change. Runway 12: Clear and dry, 1-10% contamination with <1mm, friction coefficient 0.70.
Необработанный UUOO 221130Z 10004MPS CAVOK 33/09 Q1019 R12/010070 NOSIG RMK QFE750

VFR

33°C / 11°C

[Больше]
Ветер 90º 8kt
Видимость >10km
Погода -
Облачность Clouds and Visibility OK
Давление 1019
Изменить No Significant change. Runway 12: Clear and dry, 1-10% contamination with <1mm, friction coefficient 0.70.
Необработанный UUOO 221100Z 09004MPS CAVOK 33/11 Q1019 R12/010070 NOSIG RMK QFE750

TAF для 51.82°С 39.23°В (UUOO)

From till


From till Wind 60º 6kt. Visibility 10km or more. Nil Significant Cloud.

Необработанный: TAF UUOO 222000Z 2221/2306 06003MPS CAVOK

Текущие спутниковые изображения и снимки дождя для 51.82°С 39.23°В

Указатель местности находится на 51.82°С 39.23°В. [Больше]

Спутниковое изображение в реальном времени сочетает в себе видимый свет в дневное время с инфракрасным излучением в ночное время. Ночью изображение получается не темным, так как инфракрасное излучение может обнаружить разницу температур. К сожалению, низкие облака и туман трудно отличить от температуры у поверхности земли и поэтому могут быть почти незаметны ночью. Спутниковые снимки Meteosat для Европы обновляются каждые 5 минут в режиме реального времени.Снимки GOES-16/GOES-17 (Северная и Южная Америка) и Химавари (Азия) обновляются каждые 10 минут.

Копирайт 2021 EUMETSAT / meteoblue. / Копирайт 2021 meteoblue

Радарный и сверхкраткосрочный прогноз осадков для 51.82°С 39.23°В

Индикатор местности находится на 51.82°С 39.23°В. Анимация показывает радар осадков за последний час, а также прогноз погоды для1h. Умеренная морось или легкий снег могут быть незаметны для радара. Интенсивность осадковмаркированна цветной кодировкой, начиная со светло-синего и заканчивая темно-пурпурным.